User: anonymous   Login
Location: Pardubice
(50.0618°N, 15.7556°E)
Time: 12:36:48
(UTC+02:00)
Language:

ISS - Orbit

View from above orbital plane
View from above orbital plane
View from above satellite
View from above satellite

Ground track
Ground track

The orbit data is extracted from the following two-line orbital elements,

1 25544U 98067A   18295.53819121  .00016717  00000-0  10270-3 0  9035
2 25544  51.6361 104.0938 0004109 317.8380  42.2456 15.53858268 18310
Epoch (UTC): 22 October 2018 12:54:59
Eccentricity: 0.0004109
inclination: 51.6361°
perigee height: 402 km
apogee height: 408 km
right ascension of ascending node: 104.0938°
argument of perigee: 317.8380°
revolutions per day: 15.53858268
mean anomaly at epoch: 42.2456°
orbit number at epoch: 1831

The dashed part of the orbit path shows where the satellite is in the earth's shadow,  

DLR